Location: Mentone
(34.5413°N, 85.5351°W)
Time: 19:40:26
(UTC-06:00)

Transit 2A Rocket - Visible Passes

Search period start: 24 November 2014 00:00
Search period end: 04 December 2014 00:00
Orbit: 589 x 919 km, 66.7° (Epoch: 24 November)

Date Brightness Start Highest point End Pass type
(mag) Time Alt. Az. Time Alt. Az. Time Alt. Az.
24 Nov 5.3 18:07:26 10° NNW 18:13:12 57° ENE 18:17:19 20° SE visible
24 Nov 7.6 19:51:19 10° WNW 19:55:28 20° WSW 19:57:32 17° SW visible
25 Nov 5.9 17:25:55 10° N 17:31:14 35° ENE 17:36:44 10° ESE visible
25 Nov 6.8 19:08:34 10° NW 19:13:51 34° WSW 19:19:16 10° S visible
26 Nov 5.9 18:26:20 10° NW 18:32:09 59° WSW 18:38:08 10° S visible
27 Nov 5.3 17:44:25 10° NNW 17:50:21 84° ENE 17:56:28 10° SSE visible
27 Nov 8.2 19:29:56 10° W 19:32:21 13° WSW 19:34:47 10° SW visible
28 Nov 5.5 17:02:43 10° NNW 17:08:27 50° ENE 17:14:22 10° SE visible
28 Nov 7.6 18:46:15 10° WNW 18:50:48 23° WSW 18:55:25 10° SSW visible
29 Nov 6.8 18:03:40 10° NW 18:09:09 39° WSW 18:14:46 10° S visible
30 Nov 5.8 17:21:32 10° NNW 17:27:25 67° WSW 17:33:29 10° SSE visible
01 Dec 8.4 18:24:29 10° WNW 18:27:41 15° WSW 18:30:54 10° SW visible
02 Dec 7.7 17:41:14 10° NW 17:46:06 26° WSW 17:51:03 10° SSW visible
03 Dec 6.7 16:58:48 10° NW 17:04:27 45° WSW 17:10:13 10° S visible
